Powrót do katalogu

STARLINK-32373

AktywnyŁącznośćVLEO
NORAD 60923·PAYLOAD·🇺🇸 United States

Wystrzelony Aug 31, 2024 z Cape Canaveral Space Force Station

Loading…

Następne Przeloty (najbliższe 24 godziny)

TLE

ŚwieżeSource: CelesTrak SupGP

Epoka: Sep 14, 2026, 14:23 UTC

1 60923C 24154W   26257.59979167  .00040882  00000+0  12075-2 0  2576
2 60923  53.1575 125.0395 0001247  97.5102  15.0671 15.34378607    16

Śledź STARLINK-32373 w czasie rzeczywistym z AllMySat

Download on the App Store